Location: Smithsonian NASM Public Observatory
(38.8879°N, 77.0185°W)
Time: 02:08:04
(UTC-04:00)

Daily predictions for brighter satellites

Satellite Brightness Start Highest point End
(mag) Time Altitude Azimuth Time Altitude Azimuth Time Altitude Azimuth
Cosmos 1980 Rocket 4.4 03:19:15 20° NNE 03:19:15 20° NNE 03:20:52 10° NNE
CZ-2D R/B 4.4 03:10:09 10° NNE 03:11:59 21° NE 03:11:59 21° NE
Resurs 1-4 Rocket 4.4 03:15:04 10° NNE 03:16:35 19° NNE 03:16:35 19° NNE
FALCON 9 R/B 4.1 03:31:23 73° SSW 03:32:03 74° S 04:09:10 10° ESE
Cosmos 2263 Rocket 4.2 03:28:42 10° N 03:31:06 22° NNE 03:31:06 22° NNE
SL-16 R/B 4.3 04:16:19 18° NNW 04:16:19 18° NNW 04:17:56 10° NNW
Lacrosse 4 Rocket 4.2 04:10:24 10° N 04:13:10 17° NE 04:15:57 10° E
Cosmos 2322 Rocket 3.2 04:28:06 36° NNW 04:28:06 36° NNW 04:31:47 10° NNE
SL-08 ROCKET BODY 4.5 04:20:38 10° N 04:26:30 69° E 04:27:25 59° SE
CENTAUR R/B 3.5 04:30:07 33° NW 04:30:07 33° NW 04:35:52 10° NNE
USA 215 3.6 04:23:47 10° ESE 04:30:14 62° NE 04:36:42 10° NW
SL-16 R/B 3.1 04:31:51 37° NNW 04:31:51 37° NNW 04:35:45 10° N
ADEOS Rocket 3.8 04:25:51 10° N 04:29:18 34° NNW 04:29:18 34° NNW
COSMOS 2428 4.1 04:32:15 23° SSE 04:34:50 33° ESE 04:39:52 10° NE
Cosmos 2219 Rocket 4.4 04:38:10 10° SSE 04:42:12 21° E 04:46:14 10° NE
Cosmos 2074 Rocket 4.0 04:37:00 10° N 04:43:17 82° E 04:47:30 22° S
ARIANE 5 R/B 4.5 04:42:34 10° NNW 04:44:11 17° NNW 04:44:11 17° NNW
ISS -1.2 04:51:36 17° ESE 04:51:36 17° ESE 04:52:29 10° ESE
Cosmos 1844 Rocket 4.5 04:47:03 10° N 04:51:58 30° ENE 04:56:50 10° ESE
IRS-1C Rocket 4.4 04:49:23 10° NNE 04:54:37 63° ESE 04:57:00 32° S
CZ-2D R/B 3.9 04:51:00 10° NNW 04:53:19 19° NW 04:53:19 19° NW
Cosmos 1544 Rocket 4.1 04:53:44 10° N 04:57:05 50° NNW 04:57:05 50° NNW
Cosmos 2360 Rocket 2.1 04:57:54 64° W 04:58:21 68° WNW 05:03:59 10° NNE
Resurs 1-4 Rocket 4.0 04:56:00 10° NNW 04:57:40 16° NW 04:57:40 16° NW
Cosmos 1980 Rocket 4.5 05:01:00 10° NW 05:01:00 10° NW 05:01:17 10° NW
CZ-4B R/B 3.3 04:59:42 10° NNE 05:02:24 48° NNE 05:02:24 48° NNE
Okean O Rocket 1.5 05:04:57 10° N 05:09:24 77° WNW 05:09:49 69° SW
PAYLOAD B 4.1 05:09:15 10° NNE 05:14:53 83° WNW 05:18:06 27° SSW
Cosmos 1340 3.3 05:18:04 43° NNW 05:18:04 43° NNW 05:20:56 10° N
Cosmos 2184 Rocket 4.0 05:11:29 10° NNW 05:17:30 55° W 05:22:49 14° SSW
Cosmos 2263 Rocket 4.4 05:12:36 10° NW 05:12:41 10° NW 05:12:41 10° NW
Okean-O 4.2 05:15:13 10° NNE 05:19:18 35° E 05:23:21 10° SSE
Meteor 1-12 Rocket 4.1 05:14:18 10° NNW 05:19:53 64° W 05:25:31 10° S
DELTA 2 R/B (1) 3.6 05:20:34 42° SW 05:22:25 71° SSE 05:27:56 10° E
Cosmos 1777 Rocket 4.1 05:17:51 10° NNW 05:22:58 51° WSW 05:28:03 10° S
Cosmos 2333 Rocket 3.6 05:17:48 10° S 05:22:59 37° ESE 05:28:13 10° NE
Meteor 1-18 Rocket 4.5 05:22:10 40° WSW 05:23:09 44° WNW 05:28:28 10° N
ATLAS 5 CENTAUR R/B 4.4 05:18:44 10° NNW 05:23:47 28° NE 05:29:11 10° ESE
Cosmos 1666 4.2 05:22:01 10° N 05:25:39 37° ENE 05:29:16 10° SSE
ADEOS II 2.0 05:22:31 10° N 05:27:45 67° WNW 05:30:52 24° SSW
Cosmos 1743 2.9 05:24:01 10° N 05:27:53 71° E 05:31:43 10° SSE
Meteor 1-31 Rocket 3.8 05:24:58 10° NNE 05:28:38 44° E 05:32:16 10° S
Cosmos 1025 Rocket 4.5 05:26:57 10° SSE 05:31:00 38° E 05:35:05 10° NNE
Cosmos 2322 4.2 05:29:55 34° W 05:31:36 42° WNW 05:37:02 10° N
Cosmos 1455 Rocket 3.4 05:27:59 10° NNW 05:32:06 40° W 05:32:07 40° W
Lacrosse 5 3.3 05:34:52 20° SSW 05:34:52 20° SSW 05:36:56 10° S
MOS 1 Rocket 4.3 05:29:21 10° NNW 05:33:13 27° WNW 05:33:13 27° WNW
EO 1 Del DPAF 3.4 05:34:09 35° SSW 05:35:21 48° W 05:39:07 10° NNW
SAR-Lupe-3 4.3 05:33:09 10° S 05:36:36 73° WSW 05:40:06 10° NNW
Meteor 1-13 Rocket 4.1 05:33:41 10° SSW 05:39:11 79° W 05:44:48 10° N
USA 116 4.1 05:40:04 10° SSE 05:44:07 77° ENE 05:48:45 10° N
Cosmos 1238 Rocket 2.2 05:46:13 43° WSW 05:46:40 48° W 05:49:33 10° N
Cosmos 2333 4.2 05:46:11 17° SW 05:50:36 64° WNW 05:56:16 10° NNE
Cosmos 2154 Rocket 4.0 05:45:07 10° NNW 05:51:09 56° W 05:57:11 10° SSW
Cosmos 1975 4.1 05:48:00 10° NW 05:50:38 23° WNW 05:50:38 23° WNW
Lacrosse 4 Rocket 1.6 05:48:04 10° NW 05:52:05 45° WSW 05:56:11 10° S
Meteor 2-19 Rocket 4.4 05:45:59 10° N 05:52:07 88° E 05:58:10 10° S
Cosmos 1844 3.9 05:48:14 10° NNW 05:54:00 75° ENE 05:59:42 10° SSE
Cosmos 2208 Rocket 4.4 05:53:05 18° SW 05:56:54 45° WNW 06:02:08 10° N
Aureole 2 Rocket 3.9 05:54:17 10° S 05:57:51 41° ESE 06:01:09 10° NE
CZ-4B R/B 3.8 05:55:22 10° N 06:00:29 36° WNW 06:04:58 13° SW
Tiangong 2 1.2 05:59:14 21° WNW 06:01:11 70° NNE 06:04:18 10° ESE
Cosmos 1437 3.9 05:58:28 10° S 06:01:37 47° E 06:04:48 10° NNE
Meteor PRIRODA 4.0 05:58:16 10° N 06:01:52 45° WNW 06:05:25 10° SSW
Iridium 2 4.2 05:58:52 10° N 06:02:40 62° E 06:06:28 10° SSE
Cosmos 1867 4.5 06:00:30 10° NNW 06:05:50 52° NE 06:11:07 10° SE
Okean 1-7 Rocket 3.6 06:03:06 10° SSW 06:07:35 61° W 06:12:03 10° N
Cosmos 2181 Rocket 4.0 06:03:41 10° SSW 06:09:47 61° W 06:16:01 10° N
Cosmos 1980 3.8 06:07:24 10° SSW 06:13:02 81° ESE 06:18:43 10° NNE
USA 215 3.8 06:07:29 10° SSE 06:13:24 36° SW 06:19:21 10° WNW
Gblst 52 Del rocket 4.4 06:07:48 10° NW 06:13:37 72° SW 06:20:12 10° SE
SL-8 Rocket 4.0 06:08:57 10° N 06:15:11 82° W 06:21:21 10° S
Meteor 1-23 Rocket 4.3 06:11:46 10° SSW 06:17:34 74° W 06:23:22 10° N
COSMOS 2428 3.5 06:14:19 12° WSW 06:19:02 33° WNW 06:24:08 10° N
ERS-2 3.0 06:17:41 10° N 06:20:57 30° WNW 06:24:11 10° SW
Thor Agena Rocket 3.5 06:17:17 10° S 06:22:18 66° WSW 06:27:20 10° NNW
Radarsat Rocket 4.1 06:16:49 10° NNE 06:22:48 80° ESE 06:28:37 10° SSW
USA 229 DEB 3.8 06:17:17 10° SW 06:24:05 67° NW 06:31:01 10° NNE
USA 229 3.7 06:17:24 10° SW 06:24:11 67° NW 06:31:07 10° NNE
GPS 2-04 Rocket1 4.5 06:22:07 10° SSW 06:25:11 22° SSE 06:28:08 10° ESE
ISS -1.8 06:24:19 12° WSW 06:25:20 13° SW 06:26:58 10° SSW
Cosmos 2219 Rocket 2.4 06:20:19 10° SW 06:25:42 50° WNW 06:31:09 10° NNE
Meteor 2-9 Rocket 4.3 06:21:52 10° NNW 06:27:26 57° W 06:32:49 10° S
Okean 2 3.4 06:23:29 10° SSW 06:27:35 63° W 06:31:45 10° N
Cosmos 2341 Rocket 4.5 06:22:58 10° NNW 06:28:39 38° W 06:34:16 10° SSW
Cosmos 1606 Rocket 3.5 06:24:39 10° N 06:29:08 78° W 06:33:36 10° S
Cosmos 2150 Rocket 4.0 06:25:33 10° NNW 06:30:51 80° WSW 06:36:13 10° SSE
GENESIS II 4.3 06:26:50 10° SSW 06:30:53 87° WNW 06:35:00 10° NNE
Cosmos 1844 Rocket 3.2 06:30:49 10° NW 06:35:51 35° WSW 06:40:50 10° SSW
NOSS 3-1 (A) 4.5 06:31:08 10° S 06:36:35 47° ESE 06:42:36 10° NE
Meteor 1-15 Rocket 4.4 06:31:49 10° NNW 06:37:41 66° W 06:43:31 10° S
Meteor 1-28 Rocket 3.2 06:33:55 10° SSE 06:37:42 87° WSW 06:41:33 10° NNW
Cosmos 2218 Rocket 4.1 06:31:54 10° NNW 06:38:13 65° W 06:44:28 10° S
NOSS 3-1 (C) 3.7 06:34:35 10° SSW 06:40:15 71° ESE 06:46:34 10° NE
Cosmos 990 Rocket 4.0 06:37:12 10° NNW 06:42:25 83° WSW 06:47:33 10° SSE
